Jamestown, ND

6:46 PM CDT on August 17, 2019 (GMT -0500)
Jamestown Municipal

Weather History for KJMS - July, 2019

Change the Weather History Date:

Tuesday, July 16, 2019

  Actual Average Record
Temperature  
Mean Temperature 73 °F 70 °F  
Max Temperature 83 °F 83 °F 108 °F (1936)
Min Temperature 62 °F 58 °F 40 °F (1911)
Degree Days  
Heating Degree Days 0 1  
Month to date heating degree days 0 16  
Since 1 June heating degree days 72 113  
Since 1 July heating degree days 0 16  
Cooling Degree Days 8 6  
Month to date cooling degree days 120 85  
Year to date cooling degree days 221 185  
Since 1 June cooling degree days 213 165  
Growing Degree Days 22 (Base 50)    
Moisture  
Dew Point 62 °F    
Average Humidity 72    
Maximum Humidity 93    
Minimum Humidity 51    
Precipitation  
Precipitation T in 0.11 in 3.00 in (1908)
Month to date precipitation 3.75 1.93  
Year to date precipitation 9.14 10.67  
Sea Level Pressure  
Sea Level Pressure 29.89 in    
Wind  
Wind Speed 5 mph (NNE)    
Max Wind Speed 15 mph    
Max Gust Speed 20 mph    
Visibility 10 miles    
Events      
T = Trace of Precipitation, MM = Missing Value Source: NWS Daily Summary

Daily Weather History Graph

Daily Weather History Graph

Search for Another Location

Airport or City:

Astronomy

Jul. 16, 2019 Rise Set
Actual Time 5:56 AM CDT 9:25 PM CDT
Civil Twilight 5:18 AM CDT 10:02 PM CDT
Nautical Twilight 4:27 AM CDT 10:52 PM CDT
Astronomical Twilight 3:21 AM CDT 11:58 PM CDT
Moon 9:32 PM CDT (7/16) 5:34 AM CDT (7/16)
Length of Visible Light 16h 44m
Length of Day
15h 29m
Full, 100% of the Moon is Illuminated
Jul 16
Full
Jul 16
Full
Jul 24
Last Quarter
Jul 31
New
Aug 7
First Quarter

Hourly Weather History & Observations

Time (CDT) Temp. Heat Index Dew Point Humidity Pressure Visibility Wind Dir Wind Speed Gust Speed Precip Events Conditions
12:56 AM 68.0 °F - 61.0 °F 78% 29.86 in 10.0 mi NNW 5.8 mph - N/A   Clear
1:56 AM 64.9 °F - 60.1 °F 84% 29.88 in 10.0 mi NNW 6.9 mph - N/A   Clear
2:56 AM 64.0 °F - 61.0 °F 90% 29.88 in 10.0 mi NW 5.8 mph - N/A   Clear
3:56 AM 64.0 °F - 61.0 °F 90% 29.86 in 10.0 mi NNW 3.5 mph - N/A   Clear
4:56 AM 64.0 °F - 61.0 °F 90% 29.87 in 10.0 mi NNW 3.5 mph - N/A   Clear
5:56 AM 64.0 °F - 61.0 °F 90% 29.88 in 10.0 mi NNW 6.9 mph - N/A   Clear
6:56 AM 64.9 °F - 62.1 °F 90% 29.89 in 10.0 mi Calm Calm - N/A   Clear
7:56 AM 68.0 °F - 64.0 °F 87% 29.90 in 10.0 mi North 3.5 mph - N/A   Clear
8:56 AM 73.0 °F - 64.9 °F 76% 29.91 in 10.0 mi NE 3.5 mph - N/A   Clear
9:56 AM 75.0 °F - 64.0 °F 69% 29.91 in 10.0 mi Calm Calm - N/A   Clear
10:56 AM 77.0 °F - 64.0 °F 64% 29.91 in 10.0 mi Calm Calm - N/A   Clear
11:56 AM 79.0 °F - 63.0 °F 58% 29.92 in 10.0 mi Variable 4.6 mph - N/A   Clear
12:56 PM 79.0 °F - 62.1 °F 56% 29.91 in 10.0 mi Calm Calm - N/A   Mostly Cloudy
1:56 PM 80.1 °F 81.2 °F 62.1 °F 54% 29.90 in 10.0 mi Calm Calm - N/A   Mostly Cloudy
2:56 PM 80.1 °F 81.2 °F 62.1 °F 54% 29.90 in 10.0 mi NE 6.9 mph - N/A   Clear
3:56 PM 80.1 °F 80.9 °F 60.1 °F 50% 29.90 in 10.0 mi NNE 5.8 mph - N/A   Clear
4:56 PM 79.0 °F - 61.0 °F 54% 29.89 in 10.0 mi ENE 3.5 mph - 0.00 in   Clear
5:10 PM 80.1 °F 81.1 °F 61.0 °F 52% 29.91 in 10.0 mi NE 4.6 mph - N/A   Mostly Cloudy
5:56 PM 79.0 °F - 62.1 °F 56% 29.89 in 10.0 mi North 12.7 mph - N/A   Scattered Clouds
6:56 PM 75.9 °F - 59.0 °F 56% 29.87 in 10.0 mi ENE 8.1 mph - N/A   Mostly Cloudy
7:56 PM 73.9 °F - 61.0 °F 64% 29.88 in 10.0 mi NNE 11.5 mph - N/A   Scattered Clouds
8:56 PM 72.0 °F - 63.0 °F 73% 29.86 in 10.0 mi ENE 6.9 mph - N/A   Mostly Cloudy
9:56 PM 70.0 °F - 64.0 °F 81% 29.87 in 10.0 mi East 5.8 mph - N/A   Mostly Cloudy
10:56 PM 69.1 °F - 63.0 °F 81% 29.87 in 10.0 mi ENE 5.8 mph - N/A   Clear
11:56 PM 70.0 °F - 62.1 °F 76% 29.85 in 10.0 mi East 6.9 mph - N/A   Scattered Clouds